timestamp,wind_dir_avg,wind_spd_avg,wind_spd_max_dir,wind_spd_gust,battery_voltage,lat,long
2023-03-16 00:04:00+00:00,72.0,7.53,77.0,10.44,12.25,47.59359,-54.27349
2023-03-16 00:14:00+00:00,76.0,8.83,77.0,10.94,12.25,47.59359,-54.27349
2023-03-16 00:24:00+00:00,75.0,9.18,75.0,12.63,12.25,47.59359,-54.27349
2023-03-16 00:34:00+00:00,72.0,10.6,72.0,12.86,12.25,47.59359,-54.27349
2023-03-16 00:44:00+00:00,72.0,10.32,76.0,11.97,12.25,47.59359,-54.27349
2023-03-16 00:54:00+00:00,72.0,10.3,77.0,11.78,12.25,47.59359,-54.27349
2023-03-16 01:04:00+00:00,73.0,8.52,64.0,11.01,12.25,47.59359,-54.27349
2023-03-16 01:14:00+00:00,80.0,6.75,67.0,9.97,12.17,47.59359,-54.27349
2023-03-16 01:24:00+00:00,72.0,9.2,58.0,11.81,12.17,47.59359,-54.27349
2023-03-16 01:34:00+00:00,69.0,10.97,69.0,13.15,12.17,47.59359,-54.27349
2023-03-16 01:44:00+00:00,71.0,11.15,73.0,12.87,12.17,47.59359,-54.27349
2023-03-16 01:54:00+00:00,70.0,12.01,67.0,13.36,12.17,47.59359,-54.27349
2023-03-16 02:04:00+00:00,71.0,11.37,70.0,13.77,12.17,47.59359,-54.27349
2023-03-16 02:14:01+00:00,68.0,11.72,68.0,13.22,12.17,47.59359,-54.27349
2023-03-16 02:24:01+00:00,70.0,10.35,69.0,12.57,12.17,47.59359,-54.27349
2023-03-16 02:34:01+00:00,71.0,12.28,72.0,14.94,12.17,47.59359,-54.27349
2023-03-16 02:44:01+00:00,72.0,11.25,66.0,15.49,12.17,47.59359,-54.27349
2023-03-16 02:54:01+00:00,73.0,9.83,78.0,12.8,12.17,47.59359,-54.27349
2023-03-16 03:04:01+00:00,76.0,10.38,73.0,12.31,12.17,47.59359,-54.27349
2023-03-16 03:14:00+00:00,71.0,10.24,68.0,12.34,12.17,47.59359,-54.27349
2023-03-16 03:24:00+00:00,70.0,10.08,71.0,11.65,12.17,47.59359,-54.27349
2023-03-16 03:34:00+00:00,69.0,11.67,60.0,14.27,12.17,47.59359,-54.27349
2023-03-16 03:44:00+00:00,76.0,9.54,66.0,11.79,12.17,47.59359,-54.27349
2023-03-16 03:54:00+00:00,76.0,9.74,62.0,12.81,12.17,47.59359,-54.27349
2023-03-16 04:04:00+00:00,71.0,10.67,72.0,12.27,12.17,47.59359,-54.27349
2023-03-16 04:14:00+00:00,71.0,11.0,68.0,12.51,12.17,47.59359,-54.27349
2023-03-16 04:24:00+00:00,70.0,11.75,69.0,13.07,12.17,47.59359,-54.27349
2023-03-16 04:34:00+00:00,67.0,10.59,67.0,12.53,12.17,47.59359,-54.27349
2023-03-16 04:44:00+00:00,64.0,11.41,64.0,12.77,12.17,47.59359,-54.27349
2023-03-16 04:54:00+00:00,67.0,11.57,68.0,13.0,12.17,47.59359,-54.27349
2023-03-16 05:04:00+00:00,66.0,12.21,67.0,14.01,12.17,47.59359,-54.27349
2023-03-16 05:14:01+00:00,67.0,12.01,72.0,13.9,12.09,47.59359,-54.27349
2023-03-16 05:24:01+00:00,66.0,12.45,58.0,14.03,12.09,47.59359,-54.27349
2023-03-16 05:34:01+00:00,66.0,11.52,61.0,13.65,12.09,47.59359,-54.27349
2023-03-16 05:44:01+00:00,63.0,12.05,64.0,12.88,12.09,47.59359,-54.27349
2023-03-16 05:54:01+00:00,61.0,12.23,57.0,13.55,12.09,47.59359,-54.27349
2023-03-16 06:04:01+00:00,61.0,11.22,57.0,13.36,12.09,47.59359,-54.27349
2023-03-16 06:14:00+00:00,64.0,10.61,69.0,12.09,12.09,47.59359,-54.27349
2023-03-16 06:24:00+00:00,59.0,11.0,58.0,13.11,12.09,47.59359,-54.27349
2023-03-16 06:34:00+00:00,62.0,11.9,63.0,13.44,12.09,47.59359,-54.27349
2023-03-16 06:44:00+00:00,61.0,11.37,57.0,12.62,12.09,47.59359,-54.27349
2023-03-16 06:54:00+00:00,61.0,10.97,64.0,13.84,12.09,47.59359,-54.27349
2023-03-16 07:04:00+00:00,60.0,12.28,60.0,13.38,12.09,47.59359,-54.27349
2023-03-16 07:14:00+00:00,59.0,11.9,60.0,13.15,12.09,47.59359,-54.27349
2023-03-16 07:24:00+00:00,62.0,12.12,58.0,13.77,12.09,47.59359,-54.27349
2023-03-16 07:34:00+00:00,66.0,11.64,65.0,13.38,12.09,47.59359,-54.27349
2023-03-16 07:44:00+00:00,67.0,11.01,66.0,13.16,12.09,47.59359,-54.27349
2023-03-16 07:54:00+00:00,68.0,11.83,70.0,13.84,12.09,47.59359,-54.27349
2023-03-16 08:04:00+00:00,65.0,11.92,52.0,14.67,12.09,47.59359,-54.27349
2023-03-16 08:14:00+00:00,67.0,11.63,65.0,12.79,12.09,47.59359,-54.27349
2023-03-16 08:24:00+00:00,66.0,12.4,69.0,15.05,12.09,47.59359,-54.27349
2023-03-16 08:34:00+00:00,58.0,11.68,60.0,14.38,12.09,47.59359,-54.27349
2023-03-16 08:44:00+00:00,62.0,10.96,69.0,12.89,12.09,47.59359,-54.27349
2023-03-16 08:54:00+00:00,69.0,11.63,66.0,12.93,12.09,47.59359,-54.27349
2023-03-16 09:04:00+00:00,64.0,10.36,71.0,13.3,12.09,47.59359,-54.27349
2023-03-16 09:14:01+00:00,315.0,0.01,67.0,0.0,12.01,47.59359,-54.27349
2023-03-16 09:24:01+00:00,315.0,0.01,67.0,0.0,12.01,47.59359,-54.27349
2023-03-16 09:34:01+00:00,315.0,0.01,67.0,0.0,12.01,47.59359,-54.27349
2023-03-16 09:44:01+00:00,315.0,0.01,67.0,0.0,12.01,47.59359,-54.27349
2023-03-16 09:54:01+00:00,315.0,0.01,67.0,0.0,12.01,47.59359,-54.27349
2023-03-16 10:04:01+00:00,65.0,11.56,64.0,12.49,12.01,47.59359,-54.27349
2023-03-16 10:14:01+00:00,62.0,9.84,69.0,12.38,12.01,47.59359,-54.27349
2023-03-16 10:24:01+00:00,62.0,9.86,64.0,13.11,12.01,47.59359,-54.27349
2023-03-16 10:34:01+00:00,65.0,10.96,67.0,13.76,12.01,47.59359,-54.27349
2023-03-16 10:44:01+00:00,61.0,7.57,69.0,10.3,12.01,47.59359,-54.27349
2023-03-16 10:54:01+00:00,62.0,8.2,69.0,11.82,12.01,47.59359,-54.27349
2023-03-16 11:04:01+00:00,65.0,8.03,72.0,11.45,12.01,47.59359,-54.27349
2023-03-16 11:14:00+00:00,64.0,7.73,72.0,12.27,12.17,47.59359,-54.27349
2023-03-16 11:24:00+00:00,72.0,9.31,70.0,10.72,12.17,47.59359,-54.27349
2023-03-16 11:34:00+00:00,65.0,8.96,71.0,11.94,12.17,47.59359,-54.27349
2023-03-16 11:44:00+00:00,66.0,8.79,69.0,12.28,12.17,47.59359,-54.27349
2023-03-16 11:54:00+00:00,64.0,8.43,68.0,12.33,12.17,47.59359,-54.27349
2023-03-16 12:04:00+00:00,64.0,9.0,71.0,12.63,12.17,47.59359,-54.27349
2023-03-16 12:14:00+00:00,67.0,10.7,69.0,12.92,12.57,47.59359,-54.27349
2023-03-16 12:24:00+00:00,67.0,9.77,71.0,11.86,12.57,47.59359,-54.27349
2023-03-16 12:34:00+00:00,63.0,10.05,65.0,12.38,12.57,47.59359,-54.27349
2023-03-16 12:44:00+00:00,61.0,10.09,66.0,12.29,12.57,47.59359,-54.27349
2023-03-16 12:54:00+00:00,61.0,10.2,59.0,11.67,12.57,47.59359,-54.27349
2023-03-16 13:04:00+00:00,62.0,9.21,60.0,10.46,12.57,47.59359,-54.27349
2023-03-16 13:14:00+00:00,62.0,8.96,58.0,10.34,13.13,47.59359,-54.27349
2023-03-16 13:24:00+00:00,63.0,8.78,65.0,10.3,13.13,47.59359,-54.27349
2023-03-16 13:34:00+00:00,65.0,9.33,67.0,10.75,13.13,47.59359,-54.27349
2023-03-16 13:44:00+00:00,63.0,9.25,59.0,10.85,13.13,47.59359,-54.27349
2023-03-16 13:54:00+00:00,62.0,10.21,69.0,11.82,13.13,47.59359,-54.27349
2023-03-16 14:04:00+00:00,69.0,9.58,72.0,11.02,13.13,47.59359,-54.27349
2023-03-16 14:14:00+00:00,67.0,9.85,69.0,11.36,13.44,47.59359,-54.27349
2023-03-16 14:24:00+00:00,66.0,9.64,70.0,11.0,13.44,47.59359,-54.27349
2023-03-16 14:34:00+00:00,64.0,9.13,69.0,10.52,13.44,47.59359,-54.27349
2023-03-16 14:44:00+00:00,63.0,9.25,68.0,11.1,13.44,47.59359,-54.27349
2023-03-16 14:54:00+00:00,65.0,9.85,65.0,11.25,13.44,47.59359,-54.27349
2023-03-16 15:04:00+00:00,66.0,9.03,66.0,10.89,13.44,47.59359,-54.27349
2023-03-16 15:14:00+00:00,66.0,9.36,68.0,11.16,13.68,47.59359,-54.27349
2023-03-16 15:24:00+00:00,62.0,9.77,61.0,10.99,13.68,47.59359,-54.27349
2023-03-16 15:34:00+00:00,67.0,10.31,71.0,11.44,13.68,47.59359,-54.27349
2023-03-16 15:44:00+00:00,67.0,10.32,66.0,11.43,13.68,47.59359,-54.27349
2023-03-16 15:54:00+00:00,68.0,10.58,68.0,11.6,13.68,47.59359,-54.27349
2023-03-16 16:04:00+00:00,69.0,10.64,69.0,12.68,13.68,47.59359,-54.27349
2023-03-16 16:14:00+00:00,70.0,10.51,70.0,11.42,13.6,47.59359,-54.27349
2023-03-16 16:24:00+00:00,70.0,10.51,69.0,11.46,13.6,47.59359,-54.27349
2023-03-16 16:34:00+00:00,65.0,9.14,64.0,11.48,13.6,47.59359,-54.27349
2023-03-16 16:44:00+00:00,66.0,9.68,64.0,10.95,13.6,47.59359,-54.27349
2023-03-16 16:54:00+00:00,71.0,10.2,70.0,11.46,13.6,47.59359,-54.27349
2023-03-16 17:04:00+00:00,64.0,8.91,65.0,10.97,13.6,47.59359,-54.27349
2023-03-16 17:14:00+00:00,64.0,10.09,68.0,11.27,13.68,47.59359,-54.27349
2023-03-16 17:24:00+00:00,61.0,9.05,61.0,11.49,13.68,47.59359,-54.27349
2023-03-16 17:34:00+00:00,61.0,10.49,59.0,11.63,13.68,47.59359,-54.27349
2023-03-16 17:44:00+00:00,62.0,10.7,60.0,11.89,13.68,47.59359,-54.27349
2023-03-16 17:54:00+00:00,60.0,10.78,59.0,11.89,13.68,47.59359,-54.27349
2023-03-16 18:04:00+00:00,56.0,9.39,62.0,11.48,13.68,47.59359,-54.27349
2023-03-16 18:14:00+00:00,51.0,8.52,60.0,11.46,13.68,47.59359,-54.27349
2023-03-16 18:24:00+00:00,58.0,11.27,58.0,11.87,13.68,47.59359,-54.27349
2023-03-16 18:34:00+00:00,60.0,10.72,60.0,11.39,13.68,47.59359,-54.27349
2023-03-16 18:44:00+00:00,65.0,10.25,67.0,11.26,13.68,47.59359,-54.27349
2023-03-16 18:54:00+00:00,61.0,10.8,53.0,12.13,13.68,47.59359,-54.27349
2023-03-16 19:04:00+00:00,57.0,9.01,62.0,11.25,13.68,47.59359,-54.27349
2023-03-16 19:14:00+00:00,63.0,9.4,65.0,10.62,13.68,47.59359,-54.27349
2023-03-16 19:24:00+00:00,60.0,6.95,66.0,9.57,13.68,47.59359,-54.27349
2023-03-16 19:34:00+00:00,65.0,8.17,69.0,10.07,13.68,47.59359,-54.27349
2023-03-16 19:44:00+00:00,56.0,5.71,65.0,7.91,13.68,47.59359,-54.27349
2023-03-16 19:54:00+00:00,66.0,9.46,68.0,11.27,13.68,47.59359,-54.27349
2023-03-16 20:04:00+00:00,68.0,10.27,68.0,11.09,13.68,47.59359,-54.27349
2023-03-16 20:14:00+00:00,66.0,10.95,62.0,11.78,13.37,47.59359,-54.27349
2023-03-16 20:24:00+00:00,65.0,11.06,64.0,11.86,13.37,47.59359,-54.27349
2023-03-16 20:34:00+00:00,68.0,9.8,70.0,11.2,13.37,47.59359,-54.27349
2023-03-16 20:44:00+00:00,65.0,10.29,68.0,11.22,13.37,47.59359,-54.27349
2023-03-16 20:54:00+00:00,69.0,10.34,68.0,11.23,13.37,47.59359,-54.27349
2023-03-16 21:04:00+00:00,68.0,9.97,72.0,10.78,13.37,47.59359,-54.27349
2023-03-16 21:14:00+00:00,67.0,10.31,69.0,11.46,12.89,47.59359,-54.27349
2023-03-16 21:24:00+00:00,67.0,10.66,69.0,11.49,12.89,47.59359,-54.27349
2023-03-16 21:34:00+00:00,66.0,10.85,62.0,11.83,12.89,47.59359,-54.27349
2023-03-16 21:44:00+00:00,58.0,10.54,62.0,12.03,12.89,47.59359,-54.27349
2023-03-16 21:54:00+00:00,59.0,11.4,59.0,12.26,12.89,47.59359,-54.27349
2023-03-16 22:04:00+00:00,56.0,11.85,56.0,12.73,12.89,47.59359,-54.27349
2023-03-16 22:14:00+00:00,57.0,10.89,60.0,12.28,12.41,47.59359,-54.27349
2023-03-16 22:24:00+00:00,56.0,10.82,59.0,12.45,12.41,47.59359,-54.27349
2023-03-16 22:34:00+00:00,58.0,11.13,58.0,12.37,12.41,47.59359,-54.27349
2023-03-16 22:44:00+00:00,58.0,10.7,54.0,12.16,12.41,47.59359,-54.27349
2023-03-16 22:54:00+00:00,62.0,10.73,65.0,11.77,12.41,47.59359,-54.27349
2023-03-16 23:04:00+00:00,66.0,11.07,65.0,11.66,12.41,47.59359,-54.27349
2023-03-16 23:14:00+00:00,62.0,10.94,58.0,11.86,12.33,47.59359,-54.27349
2023-03-16 23:24:00+00:00,63.0,10.68,64.0,11.74,12.33,47.59359,-54.27349
2023-03-16 23:34:00+00:00,60.0,10.42,63.0,11.85,12.33,47.59359,-54.27349
2023-03-16 23:44:00+00:00,63.0,9.83,67.0,11.68,12.33,47.59359,-54.27349
2023-03-16 23:54:00+00:00,69.0,10.36,68.0,11.33,12.33,47.59359,-54.27349
